When you browse on this site, cookies collect data to enhance your experience and personalize the content and advertising you see.
Visit our Privacy Policy to learn more. By continuing to use the site, you agree to this use of cookies and data.
  • In Hungary
  • List of Countries
  • For 7 days
  • Water Temperature
  • Satellite Maps
  • Weather Map
  • News
  • Weather Widgets
  • user-avatar
    Login

    Hourly Weather Strupina

    Today, 25 May, Saturday

    Time Temperature Precipitation Wind Pressure Humidity
    00:00 +12°C° 0 mm 2 mps 746 mmHg 67%
    01:00 +12°C° 0 mm 2 mps 746 mmHg 69%
    02:00 +12°C° 0 mm 2 mps 746 mmHg 73%
    03:00 +12°C° 0 mm 2 mps 746 mmHg 78%
    04:00 +12°C° 0 mm 2 mps 746 mmHg 82%
    05:00 +12°C° 0 mm 3 mps 746 mmHg 81%
    06:00 +14°C° 0 mm 3 mps 747 mmHg 79%
    07:00 +16°C° 0 mm 3 mps 747 mmHg 78%
    08:00 +17°C° 0.4 mm 4 mps 747 mmHg 76%
    09:00 +18°C° 0.4 mm 4 mps 747 mmHg 74%
    10:00 +20°C° 0.4 mm 4 mps 747 mmHg 72%
    11:00 +20°C° 0.6 mm 4 mps 747 mmHg 69%
    12:00 +20°C° 0.6 mm 4 mps 747 mmHg 67%
    13:00 +21°C° 0.6 mm 3 mps 747 mmHg 64%
    14:00 +21°C° 0.4 mm 3 mps 747 mmHg 63%
    15:00 +21°C° 0.4 mm 3 mps 747 mmHg 61%
    16:00 +21°C° 0.4 mm 3 mps 747 mmHg 60%
    17:00 +20°C° 0.1 mm 3 mps 747 mmHg 65%
    18:00 +19°C° 0.1 mm 2 mps 747 mmHg 70%
    19:00 +17°C° 0.1 mm 2 mps 747 mmHg 75%
    20:00 +16°C° 0 mm 2 mps 747 mmHg 79%
    21:00 +14°C° 0 mm 2 mps 748 mmHg 83%
    22:00 +13°C° 0 mm 2 mps 748 mmHg 86%
    23:00 +12°C° 0 mm 2 mps 748 mmHg 89%

    Tomorrow, 26 May, Sunday

    Time Temperature Precipitation Wind Pressure Humidity
    00:00 +10°C° 0 mm 2 mps 748 mmHg 91%
    01:00 +9°C° 0 mm 2 mps 748 mmHg 93%
    02:00 +9°C° 0 mm 2 mps 748 mmHg 94%
    03:00 +8°C° 0 mm 2 mps 748 mmHg 94%
    04:00 +9°C° 0 mm 1 mps 748 mmHg 95%
    05:00 +9°C° 0 mm 2 mps 748 mmHg 90%
    06:00 +12°C° 0 mm 2 mps 748 mmHg 86%
    07:00 +13°C° 0 mm 3 mps 748 mmHg 81%
    08:00 +14°C° 0 mm 3 mps 748 mmHg 75%
    09:00 +17°C° 0 mm 3 mps 748 mmHg 68%
    10:00 +18°C° 0 mm 4 mps 748 mmHg 62%
    11:00 +19°C° 0 mm 4 mps 747 mmHg 59%
    12:00 +20°C° 0 mm 4 mps 747 mmHg 56%
    13:00 +21°C° 0 mm 5 mps 746 mmHg 52%
    14:00 +22°C° 0 mm 5 mps 746 mmHg 53%
    15:00 +22°C° 0 mm 5 mps 746 mmHg 54%
    16:00 +22°C° 0 mm 5 mps 745 mmHg 54%
    17:00 +21°C° 0 mm 4 mps 745 mmHg 60%
    18:00 +20°C° 0 mm 3 mps 745 mmHg 66%
    19:00 +19°C° 0 mm 2 mps 745 mmHg 72%
    20:00 +17°C° 0 mm 2 mps 746 mmHg 75%
    21:00 +16°C° 0 mm 2 mps 746 mmHg 77%
    22:00 +15°C° 0 mm 2 mps 746 mmHg 79%
    23:00 +15°C° 0 mm 2 mps 746 mmHg 81%

    Day after tomorrow, 27 May, Monday

    Time Temperature Precipitation Wind Pressure Humidity
    00:00 +14°C° 0 mm 2 mps 745 mmHg 82%
    01:00 +14°C° 0 mm 2 mps 745 mmHg 84%
    02:00 +14°C° 0 mm 2 mps 745 mmHg 85%
    03:00 +12°C° 0 mm 3 mps 745 mmHg 86%
    04:00 +12°C° 0 mm 3 mps 744 mmHg 87%
    05:00 +14°C° 0 mm 3 mps 744 mmHg 82%
    06:00 +17°C° 0 mm 4 mps 744 mmHg 77%
    07:00 +19°C° 0 mm 4 mps 744 mmHg 72%
    08:00 +20°C° 0 mm 4 mps 744 mmHg 67%
    09:00 +21°C° 0 mm 4 mps 744 mmHg 62%
    10:00 +23°C° 0 mm 5 mps 744 mmHg 57%
    11:00 +23°C° 0.1 mm 5 mps 744 mmHg 56%
    12:00 +25°C° 0.1 mm 5 mps 743 mmHg 55%
    13:00 +26°C° 0.1 mm 5 mps 743 mmHg 54%
    14:00 +25°C° 0.8 mm 5 mps 743 mmHg 60%
    15:00 +23°C° 0.8 mm 5 mps 743 mmHg 66%
    16:00 +22°C° 0.8 mm 5 mps 743 mmHg 72%
    17:00 +21°C° 1.1 mm 4 mps 743 mmHg 77%
    18:00 +20°C° 1.1 mm 3 mps 743 mmHg 82%
    19:00 +19°C° 1.1 mm 2 mps 743 mmHg 87%
    20:00 +19°C° 0.1 mm 1 mps 743 mmHg 89%
    21:00 +18°C° 0.1 mm 1 mps 743 mmHg 91%
    22:00 +16°C° 0.1 mm 1 mps 743 mmHg 93%
    23:00 +15°C° 0 mm 1 mps 743 mmHg 93%

    28 May, Tuesday

    Time Temperature Precipitation Wind Pressure Humidity
    00:00 +15°C° 0 mm 1 mps 743 mmHg 94%
    01:00 +14°C° 0 mm 1 mps 743 mmHg 94%
    02:00 +14°C° 0.1 mm 1 mps 743 mmHg 95%
    03:00 +14°C° 0.1 mm 1 mps 743 mmHg 95%
    04:00 +14°C° 0.1 mm 1 mps 742 mmHg 95%
    05:00 +15°C° 1.3 mm 2 mps 742 mmHg 95%
    06:00 +15°C° 1.3 mm 2 mps 742 mmHg 95%
    07:00 +15°C° 1.3 mm 2 mps 742 mmHg 95%
    08:00 +14°C° 2.2 mm 3 mps 742 mmHg 95%
    09:00 +14°C° 2.2 mm 3 mps 742 mmHg 96%
    10:00 +13°C° 2.2 mm 4 mps 742 mmHg 96%
    11:00 +13°C° 1.2 mm 4 mps 742 mmHg 96%
    12:00 +13°C° 1.2 mm 4 mps 742 mmHg 95%
    13:00 +13°C° 1.2 mm 5 mps 742 mmHg 95%
    14:00 +13°C° 0.9 mm 5 mps 742 mmHg 95%
    15:00 +13°C° 0.9 mm 5 mps 742 mmHg 95%
    16:00 +13°C° 0.9 mm 5 mps 742 mmHg 95%
    17:00 +13°C° 0.4 mm 5 mps 743 mmHg 95%
    18:00 +12°C° 0.4 mm 5 mps 743 mmHg 95%
    19:00 +12°C° 0.4 mm 5 mps 743 mmHg 95%
    20:00 +12°C° 0.3 mm 4 mps 744 mmHg 95%
    21:00 +12°C° 0.3 mm 4 mps 744 mmHg 95%
    22:00 +12°C° 0.3 mm 4 mps 745 mmHg 95%
    23:00 +11°C° 0.2 mm 4 mps 745 mmHg 95%

    29 May, Wednesday

    Time Temperature Precipitation Wind Pressure Humidity
    00:00 +10°C° 0.2 mm 5 mps 746 mmHg 95%
    01:00 +9°C° 0.2 mm 6 mps 746 mmHg 94%
    02:00 +8°C° 0 mm 5 mps 747 mmHg 93%
    03:00 +7°C° 0 mm 5 mps 747 mmHg 92%
    04:00 +7°C° 0 mm 4 mps 748 mmHg 91%
    05:00 +7°C° 0 mm 4 mps 748 mmHg 87%
    06:00 +8°C° 0 mm 5 mps 749 mmHg 84%
    07:00 +8°C° 0 mm 5 mps 750 mmHg 81%
    08:00 +10°C° 0 mm 5 mps 750 mmHg 76%
    09:00 +12°C° 0 mm 5 mps 751 mmHg 70%
    10:00 +13°C° 0 mm 5 mps 751 mmHg 64%
    11:00 +13°C° 0 mm 5 mps 751 mmHg 63%
    12:00 +14°C° 0 mm 5 mps 751 mmHg 62%
    13:00 +14°C° 0 mm 5 mps 752 mmHg 60%
    14:00 +14°C° 0 mm 4 mps 752 mmHg 59%
    15:00 +15°C° 0 mm 4 mps 752 mmHg 58%
    16:00 +15°C° 0 mm 4 mps 753 mmHg 57%
    17:00 +14°C° 0 mm 3 mps 753 mmHg 62%
    18:00 +13°C° 0 mm 3 mps 753 mmHg 67%
    19:00 +13°C° 0 mm 2 mps 754 mmHg 72%
    20:00 +12°C° 0 mm 2 mps 754 mmHg 73%
    21:00 +10°C° 0 mm 2 mps 755 mmHg 74%
    22:00 +9°C° 0 mm 2 mps 755 mmHg 74%
    23:00 +8°C° 0 mm 2 mps 756 mmHg 76%

    30 May, Thursday

    Time Temperature Precipitation Wind Pressure Humidity
    00:00 +7°C° 0 mm 2 mps 756 mmHg 77%
    01:00 +7°C° 0 mm 2 mps 756 mmHg 79%
    02:00 +7°C° 0 mm 1 mps 756 mmHg 80%
    03:00 +7°C° 0 mm 1 mps 756 mmHg 82%
    04:00 +6°C° 0 mm 1 mps 756 mmHg 83%
    05:00 +8°C° 0 mm 1 mps 756 mmHg 78%
    06:00 +9°C° 0 mm 0 mps 756 mmHg 73%
    07:00 +10°C° 0 mm 0 mps 756 mmHg 67%
    08:00 +13°C° 0 mm 1 mps 756 mmHg 62%
    09:00 +14°C° 0 mm 1 mps 756 mmHg 57%
    10:00 +16°C° 0 mm 1 mps 755 mmHg 52%
    11:00 +18°C° 0 mm 1 mps 755 mmHg 50%
    12:00 +18°C° 0 mm 1 mps 754 mmHg 48%
    13:00 +19°C° 0 mm 1 mps 754 mmHg 46%
    14:00 +20°C° 0 mm 1 mps 753 mmHg 46%
    15:00 +20°C° 0 mm 1 mps 753 mmHg 47%
    16:00 +20°C° 0 mm 1 mps 753 mmHg 47%
    17:00 +18°C° 0 mm 2 mps 752 mmHg 55%
    18:00 +17°C° 0 mm 2 mps 752 mmHg 62%
    19:00 +14°C° 0 mm 3 mps 752 mmHg 70%
    20:00 +13°C° 0 mm 3 mps 752 mmHg 72%
    21:00 +12°C° 0 mm 3 mps 752 mmHg 73%
    22:00 +11°C° 0 mm 3 mps 752 mmHg 75%
    23:00 +10°C° 0 mm 3 mps 752 mmHg 75%
    Show more